Location: Prairie View Elementary School
(39.8322°N, 99.5698°W)
Time: 03:27:08
(UTC+00:00)

Envisat - Pass Details

Date: 08 December 2019
Orbit: 764 x 766 km, 98.1° (Epoch: 19 January)

Event Time Altitude Azimuth Distance (km) Brightness Sun altitude
Rises 00:26:15 0° 161° (SSE) 3,218 6.2 -13.6°
Reaches altitude 10° 00:28:33 10° 160° (SSE) 2,296 5.5 -14.0°
Maximum altitude 00:33:36 76° 75° (ENE) 793 2.9 -15.0°
Drops below altitude 10° 00:38:41 10° 351° (N) 2,312 5.4 -15.9°
Sets 00:41:00 0° 350° (N) 3,242 6.2 -16.3°
